DUZEAR1 KSAV-KHOE

Flight info

Callsign DUZEAR1
Flight time 0h 38m
Altitude 14500
Route KSAV/28 N0279F145 DCT MAYAR T408 LOTTS T341 TWEST DCT REIDS DCT AMG DCT CILDO DCT KHOE/14
Aircraft PC12/L-SDE2FGIRWY/SB1

Departure

Time 2026-04-18 11:39
Airport Savannah Hilton Head International Airport (KSAV)

Arrival

Time 2026-04-18 12:17
Airport Homerville Airport (KHOE)
Time Latitude Longitude Altitude Speed Heading
2026-04-18 11:11 32.12579 -81.20635 50 ft 0 kts
2026-04-18 11:34 32.12583 -81.20633 50 ft 0 kts 47°
2026-04-18 11:34 32.12583 -81.20613 50 ft 4 kts 137°
2026-04-18 11:34 32.12570 -81.20588 50 ft 9 kts 110°
2026-04-18 11:34 32.12516 -81.20538 50 ft 13 kts 152°
2026-04-18 11:35 32.12506 -81.20398 50 ft 16 kts 90°
2026-04-18 11:35 32.12506 -81.20247 49 ft 13 kts 87°
2026-04-18 11:35 32.12610 -81.20272 49 ft 21 kts 331°
2026-04-18 11:35 32.12733 -81.20325 47 ft 19 kts 33°
2026-04-18 11:36 32.12751 -81.20145 45 ft 30 kts 90°
2026-04-18 11:36 32.12735 -81.19957 41 ft 20 kts 110°
2026-04-18 11:36 32.12692 -81.19788 48 ft 26 kts 89°
2026-04-18 11:36 32.12690 -81.19517 49 ft 39 kts 91°
2026-04-18 11:37 32.12690 -81.19277 48 ft 28 kts 89°
2026-04-18 11:37 32.12685 -81.19074 48 ft 27 kts 90°
2026-04-18 11:37 32.12684 -81.18918 48 ft 8 kts 86°
2026-04-18 11:37 32.12779 -81.18875 40 ft 22 kts
2026-04-18 11:38 32.12849 -81.18959 35 ft 29 kts 271°
2026-04-18 11:38 32.12853 -81.19469 45 ft 94 kts 270°
2026-04-18 11:38 32.12869 -81.20391 256 ft 133 kts 271°
2026-04-18 11:38 32.12881 -81.21625 522 ft 169 kts 270°
2026-04-18 11:39 32.12884 -81.23044 1170 ft 169 kts 269°
2026-04-18 11:39 32.13031 -81.24349 2077 ft 165 kts 292°
2026-04-18 11:39 32.13687 -81.25517 2716 ft 174 kts 302°
2026-04-18 11:39 32.14415 -81.26689 3345 ft 182 kts 304°
2026-04-18 11:40 32.15219 -81.27877 3903 ft 186 kts 308°
2026-04-18 11:40 32.16037 -81.28938 4937 ft 163 kts 308°
2026-04-18 11:40 32.16573 -81.30016 5984 ft 148 kts 293°
2026-04-18 11:40 32.16979 -81.31163 6741 ft 153 kts 292°
2026-04-18 11:41 32.17374 -81.32334 7510 ft 155 kts 291°
2026-04-18 11:41 32.17769 -81.33524 8283 ft 156 kts 292°
2026-04-18 11:41 32.18131 -81.34614 8966 ft 158 kts 292°
2026-04-18 11:42 32.18536 -81.35826 9694 ft 160 kts 292°
2026-04-18 11:42 32.18944 -81.37047 10444 ft 160 kts 292°
2026-04-18 11:42 32.19352 -81.38266 11179 ft 160 kts 292°
2026-04-18 11:42 32.19759 -81.39487 11909 ft 160 kts 291°
2026-04-18 11:43 32.20167 -81.40711 12596 ft 161 kts 291°
2026-04-18 11:43 32.20578 -81.41939 13280 ft 161 kts 292°
2026-04-18 11:43 32.20988 -81.43170 13958 ft 161 kts 292°
2026-04-18 11:43 32.21400 -81.44409 14394 ft 161 kts 292°
2026-04-18 11:44 32.21848 -81.45749 14506 ft 191 kts 292°
2026-04-18 11:44 32.22367 -81.47305 14510 ft 213 kts 292°
2026-04-18 11:44 32.22920 -81.48972 14502 ft 223 kts 292°
2026-04-18 11:44 32.23494 -81.50696 14505 ft 227 kts 292°
2026-04-18 11:45 32.24072 -81.52436 14507 ft 228 kts 292°
2026-04-18 11:45 32.24627 -81.54193 14512 ft 229 kts 289°
2026-04-18 11:45 32.25136 -81.55973 14510 ft 229 kts 290°
2026-04-18 11:45 32.25654 -81.57755 14507 ft 229 kts 290°
2026-04-18 11:46 32.26172 -81.59536 14509 ft 229 kts 290°
2026-04-18 11:46 32.26688 -81.61318 14502 ft 230 kts 290°
2026-04-18 11:46 32.27204 -81.63107 14506 ft 229 kts 290°
2026-04-18 11:46 32.27720 -81.64891 14506 ft 229 kts 290°
2026-04-18 11:47 32.28229 -81.66649 14507 ft 230 kts 290°
2026-04-18 11:47 32.28697 -81.68272 14506 ft 230 kts 290°
2026-04-18 11:47 32.29213 -81.70062 14506 ft 230 kts 290°
2026-04-18 11:47 32.29728 -81.71848 14506 ft 230 kts 290°
2026-04-18 11:48 32.30242 -81.73634 14500 ft 230 kts 290°
2026-04-18 11:48 32.30757 -81.75419 14506 ft 230 kts 289°
2026-04-18 11:48 32.31272 -81.77208 14506 ft 230 kts 289°
2026-04-18 11:48 32.31785 -81.78994 14502 ft 230 kts 289°
2026-04-18 11:49 32.32284 -81.80788 14500 ft 230 kts 286°
2026-04-18 11:49 32.32475 -81.82660 14501 ft 231 kts 271°
2026-04-18 11:49 32.32255 -81.84550 14499 ft 234 kts 258°
2026-04-18 11:49 32.31628 -81.86333 14498 ft 238 kts 243°
2026-04-18 11:50 32.30614 -81.87889 14502 ft 241 kts 229°
2026-04-18 11:50 32.29282 -81.89122 14501 ft 244 kts 218°
2026-04-18 11:50 32.27885 -81.90260 14503 ft 244 kts 219°
2026-04-18 11:50 32.26493 -81.91411 14500 ft 244 kts 219°
2026-04-18 11:51 32.25102 -81.92560 14510 ft 244 kts 219°
2026-04-18 11:51 32.23708 -81.93706 14510 ft 244 kts 219°
2026-04-18 11:51 32.22312 -81.94854 14506 ft 245 kts 219°
2026-04-18 11:51 32.20915 -81.96003 14504 ft 245 kts 219°
2026-04-18 11:52 32.19519 -81.97150 14511 ft 245 kts 219°
2026-04-18 11:52 32.18121 -81.98299 14509 ft 245 kts 219°
2026-04-18 11:52 32.16724 -81.99446 14507 ft 245 kts 219°
2026-04-18 11:52 32.15329 -82.00591 14512 ft 245 kts 219°
2026-04-18 11:53 32.13932 -82.01738 14511 ft 244 kts 219°
2026-04-18 11:53 32.12537 -82.02883 14503 ft 245 kts 219°
2026-04-18 11:53 32.11140 -82.04028 14511 ft 244 kts 219°
2026-04-18 11:53 32.09743 -82.05173 14508 ft 244 kts 219°
2026-04-18 11:54 32.08338 -82.06326 14516 ft 250 kts 219°
2026-04-18 11:54 32.06890 -82.07515 14525 ft 258 kts 218°
2026-04-18 11:54 32.05420 -82.08717 14528 ft 262 kts 218°
2026-04-18 11:54 32.03902 -82.09958 14526 ft 263 kts 218°
2026-04-18 11:55 32.02399 -82.11188 14525 ft 263 kts 218°
2026-04-18 11:55 32.00916 -82.12403 14528 ft 263 kts 218°
2026-04-18 11:55 31.99410 -82.13635 14527 ft 264 kts 218°
2026-04-18 11:55 31.97903 -82.14866 14527 ft 263 kts 218°
2026-04-18 11:56 31.96399 -82.16094 14527 ft 263 kts 218°
2026-04-18 11:56 31.94895 -82.17324 14528 ft 263 kts 218°
2026-04-18 11:56 31.93389 -82.18554 14527 ft 263 kts 218°
2026-04-18 11:56 31.91892 -82.19775 14527 ft 263 kts 218°
2026-04-18 11:57 31.90388 -82.21001 14527 ft 263 kts 218°
2026-04-18 11:57 31.88946 -82.22177 14524 ft 263 kts 218°
2026-04-18 11:57 31.87438 -82.23407 14524 ft 263 kts 218°
2026-04-18 11:57 31.85935 -82.24631 14523 ft 263 kts 218°
2026-04-18 11:58 31.84430 -82.25858 14524 ft 263 kts 218°
2026-04-18 11:58 31.82924 -82.27083 14524 ft 263 kts 218°
2026-04-18 11:58 31.81415 -82.28310 14524 ft 263 kts 218°
2026-04-18 11:58 31.79909 -82.29535 14524 ft 263 kts 218°
2026-04-18 11:59 31.78403 -82.30759 14525 ft 263 kts 218°
2026-04-18 11:59 31.76896 -82.31984 14525 ft 263 kts 218°
2026-04-18 11:59 31.75391 -82.33206 14524 ft 263 kts 218°
2026-04-18 11:59 31.73887 -82.34427 14525 ft 263 kts 218°
2026-04-18 12:00 31.72385 -82.35647 14524 ft 263 kts 218°
2026-04-18 12:00 31.70879 -82.36869 14526 ft 263 kts 218°
2026-04-18 12:00 31.69368 -82.38094 14524 ft 263 kts 218°
2026-04-18 12:00 31.67862 -82.39314 14525 ft 263 kts 218°
2026-04-18 12:01 31.64851 -82.41754 14525 ft 263 kts 218°
2026-04-18 12:01 31.63372 -82.42951 14529 ft 263 kts 218°
2026-04-18 12:01 31.61866 -82.44172 14526 ft 263 kts 218°
2026-04-18 12:02 31.60341 -82.45407 14283 ft 270 kts 218°
2026-04-18 12:02 31.58801 -82.46652 13902 ft 274 kts 218°
2026-04-18 12:02 31.57227 -82.47923 13523 ft 275 kts 218°
2026-04-18 12:02 31.55657 -82.49190 13163 ft 274 kts 218°
2026-04-18 12:03 31.54088 -82.50458 12809 ft 273 kts 217°
2026-04-18 12:03 31.52574 -82.51783 12459 ft 271 kts 220°
2026-04-18 12:03 31.51089 -82.53138 12107 ft 270 kts 220°
2026-04-18 12:03 31.49601 -82.54478 11760 ft 269 kts 220°
2026-04-18 12:04 31.48118 -82.55814 11417 ft 269 kts 219°
2026-04-18 12:04 31.46637 -82.57153 11079 ft 269 kts 219°
2026-04-18 12:04 31.45156 -82.58491 10736 ft 269 kts 219°
2026-04-18 12:04 31.43677 -82.59826 10395 ft 269 kts 219°
2026-04-18 12:05 31.42196 -82.61163 10052 ft 269 kts 218°
2026-04-18 12:05 31.40715 -82.62499 9708 ft 268 kts 218°
2026-04-18 12:05 31.39238 -82.63829 9367 ft 268 kts 218°
2026-04-18 12:05 31.37766 -82.65155 9033 ft 267 kts 218°
2026-04-18 12:06 31.36296 -82.66481 8688 ft 266 kts 218°
2026-04-18 12:06 31.34830 -82.67803 8341 ft 266 kts 217°
2026-04-18 12:06 31.33378 -82.69136 7993 ft 264 kts 221°
2026-04-18 12:06 31.32232 -82.70773 7656 ft 247 kts 239°
2026-04-18 12:07 31.31435 -82.72433 7487 ft 237 kts 240°
2026-04-18 12:07 31.30636 -82.74059 7235 ft 225 kts 240°
2026-04-18 12:07 31.29845 -82.75661 6958 ft 227 kts 240°
2026-04-18 12:07 31.29072 -82.77236 6686 ft 223 kts 239°
2026-04-18 12:08 31.28353 -82.78710 6467 ft 185 kts 240°
2026-04-18 12:08 31.27709 -82.80023 6338 ft 182 kts 239°
2026-04-18 12:08 31.27090 -82.81292 6127 ft 182 kts 240°
2026-04-18 12:08 31.26475 -82.82546 5907 ft 178 kts 239°
2026-04-18 12:09 31.25859 -82.83799 5665 ft 177 kts 239°
2026-04-18 12:09 31.25256 -82.85029 5464 ft 175 kts 239°
2026-04-18 12:09 31.24646 -82.86272 5213 ft 173 kts 239°
2026-04-18 12:09 31.24048 -82.87490 4995 ft 173 kts 239°
2026-04-18 12:10 31.23449 -82.88710 4758 ft 172 kts 239°
2026-04-18 12:10 31.22859 -82.89914 4531 ft 172 kts 240°
2026-04-18 12:10 31.22252 -82.91124 4295 ft 170 kts 236°
2026-04-18 12:10 31.21402 -82.92066 4073 ft 170 kts 211°
2026-04-18 12:11 31.20298 -82.92520 3852 ft 165 kts 188°
2026-04-18 12:11 31.19183 -82.92434 3650 ft 167 kts 167°
2026-04-18 12:11 31.18119 -82.91800 3424 ft 175 kts 142°
2026-04-18 12:11 31.17301 -82.90860 3197 ft 149 kts 136°
2026-04-18 12:12 31.16631 -82.90087 2995 ft 123 kts 137°
2026-04-18 12:12 31.16037 -82.89406 2857 ft 123 kts 138°
2026-04-18 12:12 31.15442 -82.88723 2703 ft 117 kts 137°
2026-04-18 12:12 31.14870 -82.88065 2551 ft 114 kts 137°
2026-04-18 12:13 31.14293 -82.87405 2404 ft 117 kts 137°
2026-04-18 12:13 31.13726 -82.86750 2247 ft 111 kts 136°
2026-04-18 12:13 31.13193 -82.86139 2107 ft 106 kts 136°
2026-04-18 12:13 31.12655 -82.85521 1968 ft 111 kts 136°
2026-04-18 12:14 31.12098 -82.84882 1817 ft 112 kts 135°
2026-04-18 12:14 31.11546 -82.84250 1675 ft 113 kts 135°
2026-04-18 12:14 31.10988 -82.83608 1517 ft 112 kts 135°
2026-04-18 12:14 31.10445 -82.82983 1367 ft 106 kts 135°
2026-04-18 12:15 31.09934 -82.82397 1227 ft 101 kts 135°
2026-04-18 12:15 31.09442 -82.81831 1095 ft 98 kts 135°
2026-04-18 12:15 31.08963 -82.81283 967 ft 96 kts 135°
2026-04-18 12:15 31.08486 -82.80735 850 ft 98 kts 135°
2026-04-18 12:16 31.08011 -82.80174 745 ft 97 kts 135°
2026-04-18 12:16 31.07523 -82.79616 639 ft 99 kts 135°
2026-04-18 12:16 31.07037 -82.79064 488 ft 97 kts 136°
2026-04-18 12:16 31.06548 -82.78507 344 ft 99 kts 135°
2026-04-18 12:17 31.06077 -82.77970 201 ft 88 kts 135°
2026-04-18 12:17 31.05815 -82.77670 197 ft 69 kts 135°
2026-04-18 12:17 31.05618 -82.77445 198 ft 19 kts 135°
2026-04-18 12:17 31.05617 -82.77384 203 ft 11 kts 44°
2026-04-18 12:18 31.05568 -82.77286 194 ft 24 kts 136°
2026-04-18 12:18 31.05409 -82.77108 193 ft 38 kts 135°
2026-04-18 12:18 31.05314 -82.76997 191 ft 17 kts 135°
2026-04-18 12:18 31.05248 -82.76916 194 ft 9 kts 97°
2026-04-18 12:19 31.05278 -82.76919 191 ft 0 kts 314°